Regional Weather Roundup
Issued by NWS State College, PA

Home | Current Version | Previous Version | Text Only | Print | Product List | Glossary Off
Versions: 1 2 3 4 5 6 7 8 9 10 11 12 13 14 15 16 17 18 19 20 21 22 23 24 25 26 27 28 29 30 31 32 33 34 35 36 37 38 39 40 41 42 43 44 45 46 47 48 49 50

000
ASUS41 KCTP 060110
RWRCTP

REGIONAL WEATHER ROUNDUP
NATIONAL WEATHER SERVICE STATE COLLEGE PA
900 PM EDT TUE MAY 05 2015

Note: "fair" indicates few or no clouds below 12,000 feet with no
significant weather and/or obstructions to visibility.

* = STATION THAT DOES NOT REPORT PRECIPITATION /E.G. RAIN...SNOW...ETC/
    THUNDER OR FOG.

PAZ002>004-007>009-013>016-020>023-029>032-060200-
WESTERN PENNSYLVANIA

CITY           SKY/WX    TMP DP  RH WIND       PRES   REMARKS
ERIE           LGT RAIN  51  49  92 NE7       30.26S FOG
MEADVILLE      LGT RAIN  60  58  92 N3        30.26R FOG
FRANKLIN*      CLOUDY    63  55  77 N3        30.27R
NEW CASTLE     FAIR      67  62  84 CALM      30.24R
BEAVER COUNTY  LGT RAIN  66  59  77 W3        30.24R
BUTLER*        CLOUDY    66  59  77 CALM      30.26R
PITTSBURGH INT LGT RAIN  70  61  73 NW7       30.23R
PITTSBURGH     CLOUDY    70  54  56 NW3       30.22R
INDIANA*       MOCLDY    66  61  82 CALM      30.28R
LATROBE        MOCLDY    66  61  82 CALM      30.25R
WASHINGTON CO* CLOUDY    66  61  82 NW3       30.25R
$$

PAZ004>006-010>012-017>019-024>028-033>037-041-042-045-046-049>053-060200-
CENTRAL PENNSYLVANIA

CITY           SKY/WX    TMP DP  RH WIND       PRES   REMARKS
BRADFORD       LGT RAIN  57  54  89 CALM      30.28R
DUBOIS         CLOUDY    65  57  75 W3        30.25R
CLEARFIELD     LGT RAIN  63  60  90 N7        30.25R
JOHNSTOWN      PTCLDY    64  55  72 NW5       30.26S
ALTOONA        CLOUDY    69  55  60 NW3       30.24R
STATE COLLEGE  LGT RAIN  70  59  68 NW3       30.24R
WILLIAMSPORT   LGT RAIN  68  57  68 CALM      30.21R
SELINSGROVE    CLOUDY    68  61  78 CALM      30.21R
FT INDIANTOWN  CLOUDY    73  57  57 VRB2      30.20R
CAPITAL CITY   LGT RAIN  72  58  61 CALM      30.19R
HARRISBURG     CLOUDY    73  58  59 CALM      30.19R
YORK           PTCLDY    66  59  78 CALM      30.20R
$$

PAZ038>040-043-044-047-048-054-055-060>062-067>071-060200-
EASTERN PENNSYLVANIA

CITY           SKY/WX    TMP DP  RH WIND       PRES   REMARKS
SCRANTON       CLOUDY    73  52  47 S3        30.21R
MOUNT POCONO   CLOUDY    66  51  58 W3        30.24R
ALLENTOWN      CLOUDY    73  53  49 W3        30.19R
QUAKERTOWN*    CLOUDY    70  55  60 CALM      30.20S
READING        PTCLDY    71  56  58 CALM      30.18R
LANCASTER      MOCLDY    72  56  57 CALM      30.19R
COATESVILLE    MOCLDY    72  57  60 W3        30.21S
POTTSTOWN      MOCLDY    70  56  61 CALM      30.21R
BLUE BELL      CLEAR     70  61  73 CALM      30.18S
DOYLESTOWN     MOCLDY    70  56  61 CALM      30.18R
WILLOW GROVE   NOT AVBL
NORTH PHILA    CLOUDY    77  54  44 NW5       30.19R
PHILADELPHIA   MOCLDY    80  55  42 W7        30.19R
$$



USA.gov is the U.S. government's official web portal to all federal, state and local government web resources and services.